Weather in Polivanovo

Russia / Ryazan Oblast     54°27′48″N   38°55′10″E
temp.,
°C
wind,
m/s
gust,
m/s
humid.,
%
clouds,
%
prec.,
mm/h
press.,
hPa
HPBL,
m
27 february, sat
sat2700:00+1w8159380 0.1 1003714
03:00+1wnw8158872 0.1 1003789
06:00+1wnw9169198 0.0 1002922
09:00−2nnw10178499 0.6 1004949
12:00−7nnw7128749 0.0 1007572
15:00−6nnw5108856 0.0 1010520
18:00−8nnw369343 0.0 1011120
21:00−7nnw399455 0.0 1013293
28 february, sun
sun2800:00−8nnw369685 0.1 1014208
03:00−11nw349673 0.1 101576
06:00−11nnw339671 0.0 101555
09:00−8nnw249578 0.2 1016192
12:00−5nnw239283 0.1 1015312
15:00−2nnw349391 0.1 1016440
18:00−3n2495100 0.1 1017140
21:00−6n119793 0.1 101921
1 march, mon
mon100:00−6sse009799 0.2 102021
03:00−8ssw119897 0.3 102221
06:00−8nw119771 0.0 102221
09:00−6w129681 0.1 102321
12:00−2w239362 0.0 1023302
15:00−1w458975 0.1 1023629
18:00−3wsw369488 0.1 1021129
21:00−1wsw599394 0.1 1019305
2 march, tue
tue200:000wsw71395100 0.1 1016492
03:00+1w61298100 0.7 1013534
06:000w71297100 0.0 1010678
09:00+1wnw81398100 0.3 1009713
12:000nw7129799 0.3 1009901
15:00+1nw7129399 0.4 1010918
18:000nw6129079 0.1 1010779
21:00−1nw6139290 0.3 1011693
3 march, wed
wed300:00−3nw61490100 0.1 1012593
03:00−3nw6139398 0.1 1012667
06:00−3nw6139496 0.1 1013622
09:00−3nw7139192 0.3 1015817
12:00−2nnw81383100 0.1 10161066
15:00−1nnw8128298 0.2 10171214
18:00−4nw5138758 0.1 1018371
21:00−5nw4109144 0.1 1020224